Regional Weather Roundup
Issued by NWS

Current Version | Previous Version | Text Only | Print | Product List | Glossary On
Versions: 1 2 3 4 5 6 7 8 9 10 11 12 13 14 15 16 17 18 19 20 21 22 23 24 25 26 27 28 29 30 31 32 33 34 35 36 37 38 39 40 41 42 43 44 45 46 47 48 49 50
000
ASUS42 KTBW 060016
RWRFL
FLORIDA REGIONAL WEATHER ROUNDUP
NATIONAL WEATHER SERVICE TAMPA BAY RUSKIN FL
800 PM EDT SUN JUL 05 2015

NOTE: "FAIR" INDICATES FEW OR NO CLOUDS BELOW 12,000 FEET WITH NO
SIGNIFICANT WEATHER AND/OR OBSTRUCTIONS TO VISIBILITY.


FLZ001>010-012>015-112-114-115-060100-
PANHANDLE FLORIDA

CITY           SKY/WX    TMP DP  RH WIND       PRES   REMARKS
PENSACOLA      CLOUDY    74  67  78 SW8       30.11F
PENSACOLA NAS  CLOUDY    74  68  81 SW7       30.11F
MILTON NAS     CLOUDY    74  66  76 SW8       30.10
CRESTVIEW      CLOUDY    77  72  84 S5        30.10F
DUKE FIELD     FAIR      78  71  78 S10       30.09F
VALPARAISO     MOCLDY    78  70  78 S3        30.10F
MARY ESTHER    CLOUDY    78  69  72 S5        30.09F
TRI COUNTY     FAIR      77  73  87 CALM      30.11F
PANAMA CITY    FAIR      78  70  76 W6        30.11S
TYNDALL AFB    PTCLDY    79  70  73 NW6       30.14R
APALACHICOLA   MOCLDY    83  71  67 SW7       30.14R

STATION/POSITION SKY/WX   TEMP    WIND        PRES    WAVE   SWELL
                          AIR SEA DIR/SP/G            HT/PER HT/PER
                          (F)     (DEG/KT/KT) (MB)    (FT/S) (FT/S)
30.1N   87.6W              77 84  300/ 12/ 16 1019.8F   2/ 3
29.2N   88.2W              83 85   10/ 14/ 17 1020.2R   1/ 5
28.8N   86.0W              83 84  340/  8/ 10 1020.2R   1/ 5   2/ 5
PANAMA CITY BEAC           78 83  280/  8/  9 1019.8S
CAPE SAN BLAS    NOT AVBL
TOWER C                    80      CALM  /  1 1020.5R
28.5N   84.5W              83 85  130/  8/ 10 1018.9F   3/ 5   3/ 5

$$
FLZ011-016>038-118-127-128-134-139-239-060100-
NORTH FLORIDA

CITY           SKY/WX    TMP DP  RH WIND       PRES   REMARKS
MARIANNA       PTCLDY    78  73  84 SW3       30.12R
TALLAHASSEE    MOCLDY    78  70  76 CALM      30.14R
PERRY          MOCLDY    78  70  77 NW8       30.16R
CROSS CITY       N/A     77  71  82 E3        30.16R
LAKE CITY      FAIR      70  70 100 E3        30.16S
GAINESVILLE    CLOUDY    72  69  90 E3        30.17S
MAYPORT NAS    LGT RAIN  73  70  90 SE7       30.16F
JACKSONVILLE   CLOUDY    72  70  93 SE6       30.16F
JAX NAS        LGT RAIN  77  71  82 E7        30.18F
JAX CRAIG      LGT RAIN  73  71  93 SE6       30.17F
JAX CECIL      CLEAR     73  72  94 CALM      30.17S
FERNANDINA BEA CLOUDY    73  72  94 SE8       30.13F
ST AUGUSTINE   LGT RAIN  72  70  93 SE6       30.19S FOG

STATION/POSITION SKY/WX   TEMP    WIND        PRES    WAVE   SWELL
                          AIR SEA DIR/SP/G            HT/PER HT/PER
                          (F)     (DEG/KT/KT) (MB)    (FT/S) (FT/S)
SHELL POINT                76      10/  4/  5   N/A
KEATON BEACH               80     320/  4/  6 1020.8R
CEDAR KEY                  79      80/ 11/ 12 1021.3R
FERNANDINA                 72 84  110/  5/  9 1021.6R
30.7N   81.3W                 78                N/A     2/ 9
MAYPORT                    71 81  200/  1/  3 1022.6F
31.4N   80.9W              75 79  250/  8/ 10 1020.8F   2/ 8   2/ 8
ST AUGUSTINE               71 74  170/  2/  2 1023.0S

$$
FLZ040-043>046-052-053-057-058-063-144-060100-
INTERIOR CENTRAL FLORIDA

CITY           SKY/WX    TMP DP  RH WIND       PRES   REMARKS
THE VILLAGES     N/A    N/A N/A N/A NE5       30.10R HAZE
LEESBURG       LGT RAIN  75  72  90 E6        30.19F
SANFORD        LGT RAIN  74  72  93 S6        30.17F
ORLANDO EXEC   LGT RAIN  74  73  97 NE3       30.16F
ORLANDO INTL   LGT RAIN  74  74 100 E7        30.17F
KISSIMMEE      CLOUDY    73  72  94 E7        30.18F
WINTER HAVEN   CLOUDY    76  72  87 E5        30.20R
LAKELAND       RAIN      73  72  94 E7        30.21R
OKEECHOBEE     MOCLDY    81  75  83 E5        30.14R

$$
FLZ041-047-054-059-064-141-147-060100-
EAST CENTRAL FLORIDA

CITY           SKY/WX    TMP DP  RH WIND       PRES   REMARKS
DAYTONA BEACH  TSTM      74  72  93 N7        30.18R FOG
DELAND           N/A     73  72  94 NW3       30.20R
NEW SMYRNA BEA PTCLDY    73  72  94 NW8       30.18R
JFK SPACE CTR  LGT RAIN  75  70  86 W7        30.16R
TITUSVILLE     TSTM      72  70  94 VRB7      30.18R
CAPE CANAVERAL CLOUDY    78  71  79 NW15      30.16R THUNDER
PATRICK AFB    CLOUDY    79  73  79 N21       30.16R THUNDER
MELBOURNE      CLOUDY    83  76  79 S3        30.15R
VERO BEACH     CLOUDY    84  74  71 SE12      30.13R
FT PIERCE      CLOUDY    84  74  71 SE10      30.13R
STUART         MOCLDY    81  73  78 SE9       30.13S

STATION/POSITION SKY/WX   TEMP    WIND        PRES    WAVE   SWELL
                          AIR SEA DIR/SP/G            HT/PER HT/PER
                          (F)     (DEG/KT/KT) (MB)    (FT/S) (FT/S)
28.5N   80.2W              83 82  150/  6/  6 1021.4R
28.9N   78.5W              82 84   70/  2/  4 1021.7R
TRIDENT PIER               83 80  110/  1/  3 1021.5R
28.4N   80.5W                 80                N/A     2/ 9
27.5N   80.2W                 83                N/A     2/ 5

$$
FLZ050-056-061-142-242-148-248-149-249-151-251-155-255-
160-260-060100-
WEST CENTRAL FLORIDA

CITY           SKY/WX    TMP DP  RH WIND       PRES   REMARKS
CRYSTAL RIVER  FAIR      77  70  78 E10       30.17R
INVERNESS      FAIR     N/A N/A N/A E5        30.20R
BROOKSVILLE    CLOUDY    73  71  93 E6        30.20R
ZEPHYRHILLS    TSTM      72  72 100 CALM      30.19R
CLEARWATER     CLOUDY    69  32  25 NE9       30.16R
TAMPA INTL     CLOUDY    78  71  79 VRB7      30.18R
TAMPA EXEC     CLOUDY    75  70  83 CALM      30.18R
PLANT CITY     CLOUDY    73  73 100 CALM      30.21R
MACDILL AFB    TSTM      77  74  90 N8        30.16R
PETER O KNIGHT LGT RAIN  79  72  78 NE6       30.18R
ST PETERSBURG  CLOUDY    81  75  82 NE14G24   30.15R THUNDER
SARASOTA       LGT RAIN  83  73  72 N18G26    30.13R
VENICE         MOCLDY    86  75  70 NE10      30.14R HX  95

STATION/POSITION SKY/WX   TEMP    WIND        PRES    WAVE   SWELL
                          AIR SEA DIR/SP/G            HT/PER HT/PER
                          (F)     (DEG/KT/KT) (MB)    (FT/S) (FT/S)
CEDAR KEY                  79      80/ 11/ 12 1021.3R
28.5N   84.5W              83 85  130/  8/ 10 1018.9F   3/ 5   3/ 5
27.3N   84.2W                 87                N/A     4/ 5
CLEARWATER BEACH NOT AVBL
MIDDLE TAMPA BAY                  320/ 14/ 18 1019.7F
VENICE                     87 90  320/ 15/ 17 1019.7R

$$
FLZ066-069-070-075>078-162-262-165-265-060100-
SOUTHWEST FLORIDA AND KEYS

CITY           SKY/WX    TMP DP  RH WIND       PRES   REMARKS
PUNTA GORDA    CLOUDY    77  71  82 N8        30.13F
FT MYERS       CLOUDY    84  72  67 N7        30.09R
SOUTHWEST INTL TSTM      77  68  73 SE13      30.13R
NAPLES         CLOUDY    80  69  69 SE8G18    30.10R THUNDER
MARCO ISLAND   CLOUDY    81  64  57 NE9       30.10S
MARATHON       PTCLDY    86  77  74 E9        30.10R HX  97
KEY WEST NAS   PTCLDY    86  76  71 E14       30.09S HX  96
KEY WEST INTL  PTCLDY    86  78  77 E12       30.10R HX  98

STATION/POSITION SKY/WX   TEMP    WIND        PRES    WAVE   SWELL
                          AIR SEA DIR/SP/G            HT/PER HT/PER
                          (F)     (DEG/KT/KT) (MB)    (FT/S) (FT/S)
VENICE                     87 90  320/ 15/ 17 1019.7R
NAPLES                        89              1019.9R
26.0N   85.6W              85 87   40/ 14/ 16 1018.8F   2/ 8   2/ 8
DRY TORTUGAS               86     120/  9/ 10 1019.0R
NW FL BAY                  87     140/ 14/ 15 1019.2
SAND KEY                   85     100/ 14/ 16 1019.0R
SOMBRERO KEY               85     100/ 16/ 17 1019.7S
LONG KEY                   85 88  120/ 11/ 12 1020.0R
MOLASSES REEF              84 86  100/ 12/ 14 1019.4R

$$
FLZ067-068-071>074-168-172>174-060100-
SOUTHEAST FLORIDA

CITY           SKY/WX    TMP DP  RH WIND       PRES   REMARKS
W PALM BEACH   MOCLDY    85  74  69 SE12      30.13R
FT LAUDER-EXEC CLEAR     86  75  69 SE10      30.10S HX  95
FT LAUDERDALE  PTCLDY    86  76  71 SE13      30.10R HX  96
POMPANO BEACH  CLEAR     86  74  67 SE12      30.11S
PEMBROKE PINES CLEAR     86  74  67 E13       30.11S
OPA LOCKA      CLEAR     85  74  69 SE12      30.10S
MIAMI          PTCLDY    85  74  69 SE13      30.10F
WEST KENDALL   CLEAR     85  74  69 SE12      30.10F
HOMESTEAD      CLEAR     85  75  72 E5        30.10F

STATION/POSITION SKY/WX   TEMP    WIND        PRES    WAVE   SWELL
                          AIR SEA DIR/SP/G            HT/PER HT/PER
                          (F)     (DEG/KT/KT) (MB)    (FT/S) (FT/S)
PORT EVERGLADES            85     130/ 10/ 13 1019.5S
VIRGINIA KEY               85 89  110/  7/  9 1019.4R
LAKE WORTH                 85 87  140/ 12/ 13 1019.4R
SETTLEMENT POINT           84     160/  7/  8 1021.2R

$$



USA.gov is the U.S. government's official web portal to all federal, state and local government web resources and services.